Regional Weather Roundup
Issued by NWS Wakefield, VA

Home | Current Version | Previous Version | Graphics & Text | Print | Product List | Glossary On
Versions: 1 2 3 4 5 6 7 8 9 10 11 12 13 14 15 16 17 18 19 20 21 22 23 24 25 26 27
000
ASUS41 KAKQ 251915
RWRAKQ

REGIONAL WEATHER ROUNDUP
NATIONAL WEATHER SERVICE WAKEFIELD VA
300 PM EDT WED MAY 25 2016

Note: "fair" indicates few or no clouds below 12,000 feet with no
significant weather and/or obstructions to visibility. * = Denotes
station may not report precipitation (e.g., rain,snow,etc.),
thunder or fog.

VAZ042-051-052>054-056-252000-
NORTHERN VIRGINIA

CITY           SKY/WX    TMP DP  RH WIND       PRES   REMARKS
WASH NATIONAL  PTSUNNY   85  54  34 W7G20     30.13F
DULLES         PTSUNNY   85  50  29 SW7       30.14F
FORT BELVOIR   FAIR      85  51  30 W6        30.13F
QUANTICO       PTSUNNY   80  60  50 S9        30.14F
FREDERICKSBRG* FAIR      86  55  35 SW12      30.13F
STAFFORD*      FAIR      84  52  33 W5        30.18S
WARRENTON      FAIR      86  44  23 SW7       30.14F
CULPEPER*      FAIR      85  54  34 SW5       30.15S
MANASSAS*      SUNNY     84  50  30 SW7       30.14F
LEESBURG*      FAIR      86  54  32 W8        30.15S
WINCHESTER     FAIR      82  52  34 SW7       30.15F
FRONT ROYAL*   FAIR      82  50  32 W3        30.14F
LURAY*         FAIR      82  52  34 SW7       30.16F
$$

VAZ048-049-060>072-079>083-252000-
CENTRAL AND SOUTH CENTRAL VIRGINIA

CITY           SKY/WX    TMP DP  RH WIND       PRES   REMARKS
RICHMOND       PTSUNNY   85  53  33 SW15      30.15F
CHESTERFIELD*  FAIR      86  54  32 W7        30.17F
PETERSBURG*    FAIR      87  52  29 W6        30.16F
HANOVER        FAIR      85  53  33 SW10      30.17S
TAPPAHANNOCK*  FAIR      87  49  27 S7        30.15F
QUINTON*       FAIR      85  55  35 W6        30.15S
CHARLOTTSVILLE FAIR      84  55  36 S8        30.15F
GORDONSVILLE*  FAIR      84  52  33 SW5       30.14F
ORANGE*        FAIR      84  52  32 SW8       30.16F
LOUISA*        FAIR      88  54  31 W8        30.15S
BUMPASS*       FAIR      83  53  35 W5        30.15F
FARMVILLE*     FAIR      85  51  30 SW8       30.15F
CREWE*         FAIR      85  56  37 S8        30.17S
FORT PICKETT*  NOT AVBL
CHASE CITY*    FAIR      84  51  31 S3        30.17F
CLARKSVILLE*   FAIR      84  59  42 W3        30.17F
SOUTH HILL*    FAIR      84  56  38 SW8       30.23S
LAWRENCEVILLE* FAIR      85  54  34 SW10      30.17S
EMPORIA*       FAIR      86  52  30 SW7G16    30.17F
$$

VAZ088>098-252000-
SOUTHEAST VIRGINIA

CITY           SKY/WX    TMP DP  RH WIND       PRES   REMARKS
NORFOLK        FAIR      82  56  40 NE9       30.15S
VIRGINIA BEACH PTSUNNY   85  61  44 E13       30.14F
NORFOLK NAVAL  FAIR      87  54  32 W8        30.16F
WEST POINT*    FAIR      85  49  28 W5        30.16F
SALUDA*        FAIR      82  60  45 E5        30.15S
NEWPORT NEWS   FAIR      85  58  39 SW12      30.15F
LANGLEY AFB    MOSUNNY   85  58  39 W6        30.15F
FORT EUSTIS    FAIR      83  65  53 VRB1      30.14F
WILLIAMSBURG*  FAIR      90  61  37 S8        30.16F
HR EXEC AP*    FAIR      88  57  35 W8        30.17S
FRANKLIN*      FAIR      85  55  34 SW12      30.16F
US460-WAKEFLD  FAIR      88  53  30 VRB5      30.15F
$$

VAZ020-022-025-037-045-252000-
WEST CENTRAL AND SOUTHWEST VIRGINIA

CITY           SKY/WX    TMP DP  RH WIND       PRES   REMARKS
STAUNTON*      FAIR      80  52  37 S7        30.19F
WAYNESBORO*    FAIR      80  51  36 SW8       30.19F
HOT SPRINGS VA FAIR      74  38  27 SW12G17   30.29S
LYNCHBURG      FAIR      81  50  33 SW7G20    30.19F
DANVILLE       FAIR      84  51  31 W9        30.18F
SOUTH BOSTON*  FAIR      84  53  33 SW8       30.17F
MARTINSVILLE   FAIR      82  51  33 CALM      30.21F
ROANOKE        FAIR      84  49  29 W6        30.20F
BLACKSBURG     FAIR      79  55  43 NW3       30.27S
DUBLIN*        FAIR      82  52  35 W3        30.25S
MARION*        FAIR      78  55  44 SW3G10    30.29S
HILLSVILLE*    PTSUNNY   76  53  45 CALM      30.26S
RICHLANDS*     MOCLDY    76  51  42 SW7       30.27S
WISE*          FAIR      79  45  29 W9G17     30.28S
ABINGDON*      FAIR      80  55  42 W6        30.25F
$$

MDZ021>025-VAZ099-100-252000-
SOUTHERN MARYLAND AND THE DELMARVA PENINSULA

CITY           SKY/WX    TMP DP  RH WIND       PRES   REMARKS
PATUXENT RIVER PTSUNNY   85  52  32 W9        30.13F
BAY BRIDGE APT MOSUNNY   86  50  28 SW7       30.12F
LEONARDTOWN    PTSUNNY   82  50  32 SW8       30.16F
DOVER          CLOUDY    86  56  36 W14       30.09F
GEORGETOWN     CLOUDY    86  48  26 W10G16    30.13F
EASTON         SUNNY     86  59  39 W7        30.16F
CAMBRIDGE      MOSUNNY   82  50  32 SW8       30.13F
SALISBURY      MOSUNNY   85  53  33 SW15      30.12F
OCEAN CITY     CLOUDY    79  62  56 VRB5      30.12F
WALLOPS ISLAND FAIR      85  52  32 W7        30.15F
ACCOMACK*      FAIR      84  46  26 W9        30.15F
$$

NCZ012>017-030>032-252000-
NORTH CENTRAL AND EASTERN NORTH CAROLINA

CITY           SKY/WX    TMP DP  RH WIND       PRES   REMARKS
ROANOKE RAPIDS FAIR      86  54  32 SW12      30.16F
RALEIGH        MOSUNNY   87  58  37 W12       30.18F
ELIZABETH CITY MOSUNNY   85  59  41 S12G18    30.17S
AHOSKIE*       MOSUNNY   85  57  39 S3        30.17F
EDENTON*       SUNNY     87  56  34 SW8       30.18F
CURRITUCK*     MOSUNNY   86  55  33 W8G16     30.17S
KILL DEVIL HLS SUNNY     89  58  35 W6        30.17F
MANTEO         MOSUNNY   83  61  47 SW7       30.19S
CAPE HATTERAS  SUNNY     77  67  71 SW7       30.22S
TARBORO*       FAIR      88  58  36 W9        30.18F
GOLDSBORO      MOSUNNY   87  55  32 S9        30.17F
WASHINGTON     MOSUNNY   85  57  38 S3        30.18F
GREENVILLE     SUNNY     86  54  32 SW5       30.19F
NEW BERN       SUNNY     86  55  34 CALM      30.20F
WILMINGTON     MOSUNNY   85  57  38 S10       30.19F
$$

VAZ048-252000-
ELSEWHERE

CITY           SKY/WX    TMP DP  RH WIND       PRES   REMARKS
HARRISBURG PA  CLOUDY    84  50  30 W7        30.09F
BALTIMORE      PTSUNNY   86  51  29 W12       30.11F
ANNAPOLIS      MOSUNNY   78  59  51 SE10      30.11F
ANDREWS AFB    FAIR      84  51  31 SW10      30.12F
PHILADELPHIA   PTSUNNY   86  41  20 W16G22    30.08F
HENDERSON NC   SUNNY     82  55  39 SW7       30.18F
GREENSBORO     PTSUNNY   85  49  28 W8        30.19F
ROCKY MOUNT    MOSUNNY   86  56  35 VRB5      30.17F
$$

VAZ100-252000-
MARINE

STATION/POSITION TIME  TEMP    WIND        PRES    WAVE   SWELL
                       AIR SEA DIR/SP/G            HT/PER HT/PER
                 (UTC) (F)     (DEG/KT/KT) (MB)    (FT/S) (FT/S)
BRANDYWINE LGT   1800   72     180/  8/ 12 1020.3F
CAPE MAY NJ      1800   76 64  230/  4/  4 1020.0F
LEWES DE         1800   80 61   60/  4/  6 1020.3F
15NM E FENWICK I 1850   66 59              1020.4F   2/ 6
OCEAN-CITY-INLET 1800   71 60  150/  4/  5 1021.0F
WACHAPREAGUE VA  1800   83 72  180/  2/ 10 1020.8R
THOMAS POINT MD  1900   72 65  170/  9/ 10 1021.1F
GOOSES REEF MD   1800   73 67  160/  4/  6 1021.8F   1
COVE POINT MD    1800   76     180/  6/  8 1021.5R
SOLOMONS ISLAND  1800   81 64  250/ 10/ 12   N/A
BISHOPS HEAD MD  1800   73 76  230/  7/  8 1021.3S
PINEY POINT MD   1800          360/  4/  5   N/A
POTOMAC MD       1800   74 69  320/  6/  8 1020.2F   0
CAMBRIDGE MD     1800   78 64  350/  5/  5 1019.9F
LEWISETTA VA     1800   79 67   20/  4/  5 1020.8S
RAPPAHANNOCK LGT 1800          210/  6/  6 1022.0S
STINGRAY PT      1800   72 70  160/  8/  8 1021.6F   0
YORK RVR RNG VA  1800   73     150/  8/  8 1020.9S
YORKTOWN VA      1800   76 65   80/ 10/ 10 1021.1S
JAMESTOWN VA     1800   80 71  160/  2/  4   N/A     0
DOMINION TERM VA 1800   83      CALM  /  1 1021.3F
KIPTOPEKE VA     1800      67  200/  1/  2   N/A
CHES BAY BRIDGE  1800   74 65  330/  5/  5 1021.3F
CAPE HENRY VA    1800   76      70/  6/  7   N/A
CHESAPEAKE LGHT  1800   74        CALM     1022.5F
WILLOUBY STN VA  1800   80     270/  5/  5 1022.4F
CAPE HENRY BUOY  1812      65                N/A     2/ 9
1ST LANDING BUOY 1800   72 70   60/  4/  4 1021.4F   1/ 4
CAPE CHARLES BUO 1826      67                N/A     2/ 9
OFFSHORE WE BUOY 1821      64                N/A     2/ 6
64NM E OF VA BCH 1850   64 61  200/  4/  6 1021.8F   2/ 8   2/ 8
DUCK PIER NC     1800   79 60  230/ 11/ 14 1021.5F
44100 DUCK FRF   1824      65                N/A     2/ 8
44056 DUCK FRF   1811      63                N/A     2/ 9
OREGON INLET NC  1800   75 70  180/ 11/ 13 1022.4F
HATTERAS NC      1800   73 69  210/  7/ 11 1023.0S
DIAMOND SHLS NC  1850   72 71  230/  8/ 10 1023.2F   2/ 8   2/ 8
CAPE LOOKOUT NC  1900   75  C1F1C2F2C3F3C4F4C5F5C6F6C7F7C8M1C9!



USA.gov is the U.S. government's official web portal to all federal, state and local government web resources and services.